Weather History for Litchfield, MN

Change the Weather History Date:

Tuesday, April 12, 2011

  Actual Average Record
Temperature  
Mean Temperature 53 °F -  
Max Temperature 69 °F 55 °F 82 °F (1968)
Min Temperature 37 °F 33 °F 3 °F (1997)
Degree Days  
Heating Degree Days 12    
Growing Degree Days 3 (Base 50)    
Moisture  
Dew Point 37 °F    
Average Humidity 59    
Maximum Humidity 93    
Minimum Humidity 28    
Precipitation  
Precipitation 0.00 in - - ()
Sea Level Pressure  
Sea Level Pressure 29.99 in    
Wind  
Wind Speed 3 mph (South)    
Max Wind Speed 8 mph    
Max Gust Speed -    
Visibility 10 miles    
Events      
Averages and records for this station are not official NWS values.
T = Trace of Precipitation, MM = Missing Value Source: NWS Daily Summary

Daily Weather History Graph

Daily Weather History Graph

Search for Another Location

Airport:

Trip Planner

Search our weather history database for the weather conditions in past years. The results will help you decide how hot, cold, wet, or windy it might be!

Date:

Astronomy

Apr. 12, 2011 Rise Set
Actual Time 6:38 AM CDT 7:59 PM CDT
Civil Twilight 6:08 AM CDT 8:30 PM CDT
Nautical Twilight 5:31 AM CDT 9:06 PM CDT
Astronomical Twilight 4:52 AM CDT 9:46 PM CDT
Moon 1:36 PM CDT (4/12) 3:22 AM CDT (4/12)
Length of Visible Light 14h 21m
Length of Day
13h 20m
Waxing Gibbous, 63% of the Moon is Illuminated
Apr 12
Waxing Gibbous
Apr 17
Full
Apr 24
Last Quarter
May 3
New
May 10
First Quarter

Hourly Weather History & Observations

Time (CDT) Temp. Windchill Dew Point Humidity Pressure Visibility Wind Dir Wind Speed Gust Speed Precip Events Conditions
12:13 AM 41.0 °F - 35.6 °F 81% 30.00 in 10.0 mi Calm Calm - N/A   Clear
12:33 AM 41.0 °F - 35.6 °F 81% 29.99 in 10.0 mi Calm Calm - N/A   Clear
12:53 AM 41.0 °F - 35.6 °F 81% 30.00 in 10.0 mi Calm Calm - N/A   Clear
1:13 AM 41.0 °F - 35.6 °F 81% 30.01 in 10.0 mi Calm Calm - N/A   Clear
1:33 AM 39.2 °F - 35.6 °F 87% 30.01 in 10.0 mi Calm Calm - N/A   Clear
1:53 AM 41.0 °F 39.0 °F 35.6 °F 81% 30.01 in 10.0 mi SW 3.5 mph - N/A   Clear
2:13 AM 37.4 °F - 35.6 °F 93% 30.01 in 10.0 mi Calm Calm - N/A   Clear
2:33 AM 39.2 °F 35.9 °F 35.6 °F 87% 30.01 in 10.0 mi WSW 4.6 mph - N/A   Clear
2:53 AM 42.8 °F 40.1 °F 35.6 °F 76% 30.01 in 10.0 mi SW 4.6 mph - N/A   Clear
3:13 AM 42.8 °F 40.1 °F 35.6 °F 76% 30.01 in 10.0 mi WSW 4.6 mph - N/A   Clear
3:33 AM 41.0 °F - 35.6 °F 81% 30.01 in 10.0 mi Calm Calm - N/A   Clear
3:53 AM 39.2 °F - 35.6 °F 87% 30.00 in 10.0 mi Calm Calm - N/A   Clear
4:13 AM 39.2 °F - 37.4 °F 93% 30.01 in 10.0 mi Calm Calm - N/A   Clear
4:33 AM 39.2 °F - 35.6 °F 87% 30.01 in 10.0 mi Calm Calm - N/A   Clear
4:53 AM 37.4 °F - 35.6 °F 93% 30.01 in 10.0 mi Calm Calm - N/A   Clear
5:13 AM 39.2 °F - 35.6 °F 87% 30.01 in 10.0 mi Calm Calm - N/A   Clear
5:33 AM 37.4 °F - 35.6 °F 93% 30.02 in 10.0 mi Calm Calm - N/A   Clear
5:52 AM 37.4 °F - 35.6 °F 93% 30.02 in 10.0 mi Calm Calm - N/A   Clear
6:13 AM 37.4 °F - 35.6 °F 93% 30.02 in 10.0 mi Calm Calm - N/A   Clear
6:33 AM 39.2 °F - 35.6 °F 87% 30.02 in 10.0 mi Calm Calm - N/A   Clear
7:13 AM 41.0 °F 39.0 °F 35.6 °F 81% 30.03 in 10.0 mi SSW 3.5 mph - N/A   Clear
7:53 AM 44.6 °F 42.2 °F 37.4 °F 76% 30.04 in 10.0 mi SSW 4.6 mph - N/A   Clear
8:13 AM 46.4 °F 44.3 °F 37.4 °F 71% 30.04 in 10.0 mi SW 4.6 mph - N/A   Clear
8:33 AM 46.4 °F 45.2 °F 37.4 °F 71% 30.04 in 10.0 mi SSW 3.5 mph - N/A   Clear
8:53 AM 48.2 °F - 39.2 °F 71% 30.04 in 10.0 mi SSW 4.6 mph - N/A   Clear
9:13 AM 50.0 °F - 39.2 °F 66% 30.05 in 10.0 mi SSW 3.5 mph - N/A   Clear
9:33 AM 51.8 °F - 39.2 °F 62% 30.05 in 10.0 mi SSW 3.5 mph - N/A   Clear
9:53 AM 53.6 °F - 39.2 °F 58% 30.04 in 10.0 mi SSW 4.6 mph - N/A   Clear
10:13 AM 55.4 °F - 39.2 °F 54% 30.04 in 10.0 mi SSW 5.8 mph - N/A   Clear
10:33 AM 55.4 °F - 37.4 °F 51% 30.04 in 10.0 mi SSW 6.9 mph - N/A   Clear
11:13 AM 59.0 °F - 39.2 °F 48% 30.03 in 10.0 mi South 3.5 mph - N/A   Clear
11:33 AM 60.8 °F - 39.2 °F 45% 30.03 in 10.0 mi Calm Calm - N/A   Clear
11:53 AM 60.8 °F - 39.2 °F 45% 30.03 in 10.0 mi SSE 5.8 mph - N/A   Clear
12:13 PM 60.8 °F - 39.2 °F 45% 30.03 in 10.0 mi SSE 5.8 mph - N/A   Clear
12:33 PM 62.6 °F - 39.2 °F 42% 30.02 in 10.0 mi South 3.5 mph - N/A   Clear
12:53 PM 62.6 °F - 41.0 °F 45% 30.01 in 10.0 mi SSE 5.8 mph - N/A   Clear
1:13 PM 64.4 °F - 41.0 °F 42% 30.01 in 10.0 mi SSE 5.8 mph - N/A   Clear
1:33 PM 64.4 °F - 39.2 °F 40% 30.00 in 10.0 mi SSE 8.1 mph - N/A   Clear
1:53 PM 66.2 °F - 37.4 °F 35% 30.00 in 10.0 mi South 5.8 mph - N/A   Clear
2:13 PM 66.2 °F - 37.4 °F 35% 29.99 in 10.0 mi South 3.5 mph - N/A   Clear
2:33 PM 66.2 °F - 37.4 °F 35% 29.98 in 10.0 mi South 4.6 mph - N/A   Clear
2:53 PM 68.0 °F - 37.4 °F 33% 29.97 in 10.0 mi SSE 5.8 mph - N/A   Clear
3:13 PM 68.0 °F - 35.6 °F 30% 29.96 in 10.0 mi SSE 6.9 mph - N/A   Clear
3:53 PM 69.8 °F - 35.6 °F 28% 29.95 in 10.0 mi SSE 5.8 mph - N/A   Clear
4:13 PM 69.8 °F - 35.6 °F 28% 29.94 in 10.0 mi South 5.8 mph - N/A   Clear
4:33 PM 69.8 °F - 35.6 °F 28% 29.93 in 10.0 mi SSE 6.9 mph - N/A   Clear
4:53 PM 68.0 °F - 35.6 °F 30% 29.93 in 10.0 mi SSE 5.8 mph - N/A   Clear
5:13 PM 69.8 °F - 35.6 °F 28% 29.93 in 10.0 mi SSE 4.6 mph - N/A   Clear
5:33 PM 68.0 °F - 35.6 °F 30% 29.93 in 10.0 mi SSE 6.9 mph - N/A   Clear
6:13 PM 68.0 °F - 35.6 °F 30% 29.92 in 10.0 mi SSE 5.8 mph - N/A   Clear
6:34 PM 66.2 °F - 35.6 °F 32% 29.92 in 10.0 mi SSE 5.8 mph - N/A   Clear
6:53 PM 66.2 °F - 35.6 °F 32% 29.92 in 10.0 mi SSE 5.8 mph - N/A   Clear
7:13 PM 64.4 °F - 35.6 °F 34% 29.92 in 10.0 mi SSE 4.6 mph - N/A   Clear
8:13 PM 57.2 °F - 41.0 °F 55% 29.92 in 10.0 mi SE 6.9 mph - N/A   Clear
8:33 PM 59.0 °F - 41.0 °F 51% 29.92 in 10.0 mi SE 8.1 mph - N/A   Clear
8:53 PM 59.0 °F - 39.2 °F 48% 29.93 in 10.0 mi SE 8.1 mph - N/A   Clear
9:13 PM 57.2 °F - 39.2 °F 51% 29.93 in 10.0 mi SE 8.1 mph - N/A   Clear
9:33 PM 57.2 °F - 39.2 °F 51% 29.92 in 10.0 mi SE 8.1 mph - N/A   Clear
9:53 PM 57.2 °F - 37.4 °F 48% 29.93 in 10.0 mi SE 6.9 mph - N/A   Clear
10:13 PM 57.2 °F - 37.4 °F 48% 29.93 in 10.0 mi SE 6.9 mph - N/A   Clear
10:33 PM 59.0 °F - 37.4 °F 45% 29.93 in 10.0 mi SSE 5.8 mph - N/A   Clear
10:53 PM 59.0 °F - 37.4 °F 45% 29.93 in 10.0 mi SSE 8.1 mph - N/A   Clear
11:13 PM 57.2 °F - 37.4 °F 48% 29.92 in 10.0 mi SSE 4.6 mph - N/A   Scattered Clouds
11:33 PM 57.2 °F - 37.4 °F 48% 29.93 in 10.0 mi South 3.5 mph - N/A   Scattered Clouds
11:53 PM 55.4 °F - 39.2 °F 54% 29.94 in 10.0 mi SW 3.5 mph - N/A   Scattered Clouds